Voltar ao catálogo

FENGYUN 1C DEB

AtivoSSO
NORAD 29784·DEBRIS·🇨🇳 China

Lançado May 10, 1999 de Taiyuan Satellite Launch Center

Loading…

Próximas Passagens (próximas 24 horas)

TLE

AtualizadoSource: Space-Track

Época: Sep 14, 2026, 06:56 UTC

1 29784U 99025CA  26257.28922392  .00000636  00000-0  25388-3 0  9998
2 29784  98.9512 189.2023 0058316 213.4813 307.2514 14.31194314 22979

Acompanhe FENGYUN 1C DEB em tempo real com AllMySat

Download on the App Store